Simultaneous Nadir Overpasses (SNOs) Predictions

Prediction of SNOs between GOES-17 and NOAA-19 Satellite Orbit:

Table of predicted SNOs for the next 14.0 days since TLE Epoch: 8/16/2019
Index Date Time (GOES-17) GOES-17 Lat,Lon NOAA-19 Lat,Lon Distance(km) Time Diff (sec)
1 08/17/2019 14:03:03 -0.04,-137.19 -0.59,-134.69 285.26 80
2 08/20/2019 02:26:51 0.04,-137.16 -0.55,-139.70 289.10 80
3 08/21/2019 02:12:33 0.04,-137.15 0.10,-136.85 34.27 80
4 08/22/2019 02:00:54 0.04,-137.14 0.74,-134.01 357.42 80
5 08/24/2019 14:24:38 -0.04,-137.12 0.40,-138.99 214.03 80
6 08/25/2019 14:10:20 -0.04,-137.10 -0.26,-136.15 108.40 80
7 08/26/2019 13:58:41 -0.04,-137.08 -0.93,-133.31 430.59 80
8 08/28/2019 02:34:10 0.04,-137.03 -0.92,-141.15 471.01 80
9 08/29/2019 02:22:31 0.04,-137.00 -0.27,-138.31 149.39 80
10 08/30/2019 02:08:13 0.05,-136.98 0.38,-135.47 172.19 80




NCC Satellite Simultaneous Nadir Overpasses (SNOs) Prediction Service
